Home > Weather > Chongqing > Past weeks

Flag for China Past Weather in Chongqing, Chongqing Municipality, China — Yesterday and Last 2 Weeks

Now
73 °F

Passing clouds.


Feels Like: 76 °F
Forecast: 72 / 83 °F
Wind: 3 mph from East

Location: Chongqing Airport

Current Time: May 25, 2016 at 3:40:56 AM

Latest Report: May 25, 2016 at 3:00 AM


Visibility: N/A

Pressure: 29.62 "Hg

Humidity: 61%

Dew Point: 59 °F

Location of ChongqingLocation

Past Weather in Chongqing — Graph

°F

Chongqing Temperature Yesterday

Maximum temperature yesterday: 84 °F (at 4:00 PM)
Minimum temperature yesterday: 64 °F (at 6:00 AM)
Average temperature yesterday: 74 °F

High & Low Weather Summary for the Past Weeks

 TemperatureHumidityPressure
High93 °F (May 11, 3:00 PM)94% (May 19, 10:00 AM)30.33 "Hg (May 19, 10:00 AM)
Low57 °F (May 15, 12:00 AM)24% (May 12, 4:00 PM)29.53 "Hg (May 11, 6:00 PM)
Average72 °F66%29.86 "Hg
* Reported May 10 2:00 AM — May 25 2:00 AM, Chongqing, Weather by CustomWeather, © 2016

Note: Actual official high and low records may vary slightly from our data, if they occured in-between our weather recording intervals... More about our weather records

Advertising

Chongqing Weather History for the Previous 24 Hours

Scroll right to see more
 ConditionsComfort  
Time TempWeatherWind HumidityBarometerVisibility
2:00 AM
Wed, May 25
75 °FPassing clouds.6 mph57%29.62 "HgN/A
1:00 AM75 °FClear.6 mph57%29.65 "Hg10 mi
12:00 AM75 °FClear.3 mph57%29.65 "Hg10 mi
11:00 PM
Tue, May 24
75 °FClear.1 mph61%29.65 "Hg10 mi
10:00 PM77 °FClear.6 mph57%29.65 "Hg10 mi
9:00 PM79 °FPassing clouds.3 mph61%29.62 "HgN/A
8:00 PM81 °FPassing clouds.3 mph58%29.62 "HgN/A
7:00 PM82 °FPassing clouds.3 mph55%29.62 "HgN/A
6:00 PM82 °FScattered clouds.6 mph51%29.62 "HgN/A
5:00 PM84 °FScattered clouds.3 mph48%29.65 "HgN/A
4:00 PM84 °FScattered clouds.6 mph48%29.68 "HgN/A
3:00 PM82 °FScattered clouds.6 mph48%29.71 "HgN/A
2:00 PM81 °FPassing clouds.6 mph54%29.74 "HgN/A
1:00 PM79 °FPassing clouds.3 mph58%29.80 "HgN/A
12:00 PM77 °FPassing clouds.3 mph61%29.83 "HgN/A
11:00 AM75 °FPassing clouds.1 mph65%29.86 "HgN/A
10:00 AM72 °FPassing clouds.3 mph73%29.86 "HgN/A
9:00 AM68 °FFog.1 mph83%29.86 "Hg3 mi
8:00 AM66 °FFog.3 mph88%29.86 "Hg1 mi
7:00 AM66 °FFog.1 mph88%29.89 "Hg1 mi
6:00 AM64 °FFog.1 mph94%29.89 "Hg1 mi
5:00 AM66 °FFog.1 mph88%29.89 "Hg2 mi
4:00 AM66 °FFog.1 mph88%29.89 "Hg3 mi
3:00 AM66 °FFog.3 mph88%29.89 "Hg2 mi
Weather by CustomWeather, © 2016

See weather overviewHow to use our weather pages